Weather History for KFAR - November, 2013

Change the Weather History Date:

Sunday, November 24, 2013

  Actual Average Record
Temperature  
Mean Temperature 26 °F 24 °F  
Max Temperature 42 °F 32 °F 57 °F (2011)
Min Temperature 9 °F 15 °F -20 °F (1893)
Degree Days  
Heating Degree Days 39 41  
Month to date heating degree days 828 825  
Since 1 July heating degree days 1572 1701  
Cooling Degree Days 0 0  
Month to date cooling degree days 0 0  
Year to date cooling degree days 699 551  
Moisture  
Dew Point 15 °F    
Average Humidity 61    
Maximum Humidity 73    
Minimum Humidity 48    
Precipitation  
Precipitation T in 0.02 in 2.10 in (1908)
Month to date precipitation 0.40 0.83  
Year to date precipitation 30.89 21.61  
Snow  
Snow 0.00 in 0.40 in 5.00 in (1896)
Month to date snowfall 0.3 5.8  
Since 1 July snowfall 0.3 6.5  
Since 1 September snowfall 0.3 6.5  
Snow Depth T in    
Sea Level Pressure  
Sea Level Pressure 30.10 in    
Wind  
Wind Speed 16 mph (South)    
Max Wind Speed 26 mph    
Max Gust Speed 36 mph    
Visibility 10 miles    
Events      
T = Trace of Precipitation, MM = Missing Value Source: NWS Daily Summary

Daily Weather History Graph

Daily Weather History Graph

Search for Another Location

Airport or City:

Trip Planner

Search our weather history database for the weather conditions in past years. The results will help you decide how hot, cold, wet, or windy it might be!

Date:

Astronomy

Nov. 24, 2013 Rise Set
Actual Time 7:43 AM CST 4:44 PM CST
Civil Twilight 7:09 AM CST 5:18 PM CST
Nautical Twilight 6:31 AM CST 5:55 PM CST
Astronomical Twilight 5:55 AM CST 6:32 PM CST
Moon 11:24 PM CST (11/24) 12:20 PM CST (11/24)
Length of Visible Light 10h 09m
Length of Day
9h 01m
Waning Gibbous, 60% of the Moon is Illuminated
Nov 24
Waning Gibbous
Nov 25
Last Quarter
Dec 2
New
Dec 9
First Quarter
Dec 17
Full

Hourly Weather History & Observations

Time (CST) Temp. Windchill Dew Point Humidity Pressure Visibility Wind Dir Wind Speed Gust Speed Precip Events Conditions
12:53 AM 9.0 °F -7.3 °F 1.0 °F 70% 30.60 in 10.0 mi SSE 13.8 mph - N/A   Clear
1:53 AM 9.0 °F -7.9 °F 1.0 °F 70% 30.55 in 10.0 mi SSE 15.0 mph 19.6 mph N/A   Clear
2:53 AM 10.0 °F -5.9 °F 1.9 °F 70% 30.50 in 10.0 mi SSE 13.8 mph - N/A   Clear
3:53 AM 10.9 °F -5.9 °F 1.9 °F 67% 30.44 in 10.0 mi SSE 16.1 mph 23.0 mph N/A   Clear
4:53 AM 10.9 °F -4.1 °F 1.9 °F 67% 30.40 in 10.0 mi SSE 12.7 mph 24.2 mph N/A   Clear
5:53 AM 12.0 °F -5.1 °F 3.0 °F 67% 30.35 in 10.0 mi SSE 17.3 mph 25.3 mph N/A   Clear
6:53 AM 12.0 °F -5.1 °F 3.9 °F 70% 30.32 in 10.0 mi South 17.3 mph 25.3 mph N/A   Clear
7:53 AM 12.9 °F -4.4 °F 3.9 °F 67% 30.26 in 10.0 mi SSE 18.4 mph 27.6 mph N/A   Clear
8:53 AM 15.1 °F -2.5 °F 6.1 °F 68% 30.21 in 10.0 mi SSE 20.7 mph 29.9 mph N/A   Clear
9:53 AM 19.0 °F 1.6 °F 9.0 °F 65% 30.15 in 10.0 mi South 24.2 mph 29.9 mph N/A   Clear
10:53 AM 25.0 °F 9.2 °F 14.0 °F 63% 30.09 in 10.0 mi South 25.3 mph 35.7 mph N/A   Clear
11:53 AM 28.9 °F 14.5 °F 18.0 °F 64% 30.02 in 10.0 mi South 25.3 mph 31.1 mph N/A   Clear
12:53 PM 34.0 °F 23.0 °F 21.0 °F 59% 29.99 in 10.0 mi South 18.4 mph 25.3 mph N/A   Clear
1:53 PM 39.0 °F 29.0 °F 21.0 °F 49% 29.94 in 10.0 mi SSW 20.7 mph 27.6 mph N/A   Clear
2:53 PM 39.0 °F 30.3 °F 21.9 °F 50% 29.91 in 10.0 mi South 16.1 mph - N/A   Clear
3:53 PM 39.0 °F 31.4 °F 23.0 °F 53% 29.88 in 10.0 mi South 12.7 mph - N/A   Mostly Cloudy
4:53 PM 37.9 °F 31.5 °F 24.1 °F 57% 29.88 in 10.0 mi South 9.2 mph - N/A   Overcast
5:53 PM 41.0 °F 35.2 °F 24.1 °F 51% 29.89 in 10.0 mi SW 9.2 mph - N/A   Overcast
6:53 PM 42.1 °F 36.1 °F 25.0 °F 51% 29.86 in 10.0 mi SW 10.4 mph - N/A   Overcast
7:53 PM 41.0 °F 34.7 °F 27.0 °F 57% 29.86 in 10.0 mi WSW 10.4 mph - 0.00 in   Overcast
8:53 PM 39.0 °F 31.8 °F 27.0 °F 62% 29.84 in 10.0 mi WSW 11.5 mph - N/A   Mostly Cloudy
9:53 PM 37.0 °F 29.3 °F 26.1 °F 65% 29.84 in 10.0 mi WSW 11.5 mph - N/A   Clear
10:53 PM 35.1 °F 26.9 °F 26.1 °F 70% 29.85 in 10.0 mi West 11.5 mph - N/A   Clear
11:53 PM 34.0 °F 25.5 °F 26.1 °F 73% 29.85 in 10.0 mi West 11.5 mph - N/A   Clear